User: anonymous   Login
Location: Chaumontel
(49.1247°N, 2.4324°E)
Time: 04:22:15
(UTC+00:00)
Language:

Okean-O - Orbit

View from above orbital plane
View from above orbital plane
View from above satellite
View from above satellite

Ground track
Ground track

The orbit data is extracted from the following two-line orbital elements,

1 25860U 99039A   23152.85008345  .00000776  00000-0  11613-3 0  9992
2 25860  98.0896 199.8533 0001565  73.4165 286.7216 14.77504520284836
Epoch (UTC): 01 June 2023 20:24:07
Eccentricity: 0.0001565
inclination: 98.0896°
perigee height: 636 km
apogee height: 638 km
right ascension of ascending node: 199.8533°
argument of perigee: 73.4165°
revolutions per day: 14.77504520
mean anomaly at epoch: 286.7216°
orbit number at epoch: 28483

The dashed part of the orbit path shows where the satellite is in the earth's shadow,  

DLR